N11DL KBOI-KASE

Flight info

Callsign N11DL
Flight time 2h 40m
Altitude 13500
Route BOI3 BOI V4 OCS V328 TILLI JESIE V591 LILXO
Aircraft AEST/L-SDFGRY/S

Departure

Time 2026-04-27 17:37
Airport Boise Air Terminal/Gowen Field (KBOI)

Arrival

Time 2026-04-27 20:18
Airport Aspen-Pitkin County Airport (Sardy Field) (KASE)
Time Latitude Longitude Altitude Speed Heading
2026-04-27 17:12 43.56426 -116.23811 2877 ft 0 kts 170°
2026-04-27 17:30 43.56425 -116.23811 2877 ft 2 kts 171°
2026-04-27 17:30 43.56480 -116.23717 2877 ft 14 kts 82°
2026-04-27 17:30 43.56491 -116.23534 2877 ft 22 kts 85°
2026-04-27 17:31 43.56503 -116.23386 2877 ft 11 kts 67°
2026-04-27 17:31 43.56536 -116.23284 2877 ft 17 kts 113°
2026-04-27 17:31 43.56479 -116.23111 2877 ft 23 kts 115°
2026-04-27 17:31 43.56403 -116.22890 2877 ft 28 kts 115°
2026-04-27 17:32 43.56327 -116.22668 2877 ft 24 kts 116°
2026-04-27 17:32 43.56175 -116.22223 2876 ft 21 kts 114°
2026-04-27 17:32 43.56104 -116.22014 2876 ft 27 kts 115°
2026-04-27 17:33 43.56041 -116.21831 2877 ft 19 kts 115°
2026-04-27 17:33 43.55991 -116.21762 2877 ft 6 kts 129°
2026-04-27 17:33 43.55994 -116.21748 2877 ft 0 kts 30°
2026-04-27 17:35 43.56018 -116.21728 2877 ft 9 kts 30°
2026-04-27 17:35 43.56090 -116.21678 2877 ft 11 kts 25°
2026-04-27 17:36 43.56126 -116.21692 2876 ft 0 kts 297°
2026-04-27 17:36 43.56126 -116.21693 2876 ft 0 kts 296°
2026-04-27 17:36 43.56143 -116.21741 2876 ft 35 kts 295°
2026-04-27 17:36 43.56357 -116.22371 2876 ft 100 kts 295°
2026-04-27 17:37 43.56681 -116.23296 3040 ft 112 kts 296°
2026-04-27 17:37 43.57061 -116.24330 3354 ft 128 kts 296°
2026-04-27 17:37 43.57462 -116.25424 3804 ft 126 kts 295°
2026-04-27 17:37 43.57827 -116.26491 4239 ft 125 kts 294°
2026-04-27 17:38 43.58174 -116.27598 4621 ft 126 kts 290°
2026-04-27 17:38 43.58519 -116.28730 5019 ft 129 kts 292°
2026-04-27 17:38 43.58690 -116.29919 5431 ft 129 kts 258°
2026-04-27 17:38 43.58249 -116.30986 5805 ft 133 kts 220°
2026-04-27 17:39 43.57385 -116.31453 6143 ft 139 kts 180°
2026-04-27 17:39 43.56485 -116.30987 6497 ft 143 kts 136°
2026-04-27 17:39 43.55988 -116.29807 6860 ft 145 kts 114°
2026-04-27 17:39 43.55489 -116.28576 7200 ft 149 kts 121°
2026-04-27 17:40 43.54927 -116.27381 7517 ft 152 kts 122°
2026-04-27 17:40 43.54347 -116.26154 7849 ft 153 kts 122°
2026-04-27 17:40 43.53770 -116.24914 8177 ft 154 kts 122°
2026-04-27 17:40 43.53194 -116.23659 8471 ft 155 kts 121°
2026-04-27 17:41 43.52620 -116.22396 8769 ft 155 kts 121°
2026-04-27 17:41 43.52049 -116.21129 9058 ft 156 kts 121°
2026-04-27 17:41 43.51484 -116.19871 9345 ft 157 kts 121°
2026-04-27 17:41 43.50901 -116.18581 9621 ft 160 kts 121°
2026-04-27 17:42 43.50308 -116.17272 9908 ft 162 kts 121°
2026-04-27 17:42 43.49703 -116.15940 10195 ft 164 kts 121°
2026-04-27 17:42 43.49094 -116.14601 10481 ft 166 kts 121°
2026-04-27 17:42 43.48477 -116.13250 10764 ft 167 kts 122°
2026-04-27 17:43 43.47845 -116.11906 11042 ft 168 kts 123°
2026-04-27 17:43 43.47205 -116.10555 11311 ft 170 kts 123°
2026-04-27 17:43 43.46558 -116.09174 11546 ft 173 kts 123°
2026-04-27 17:43 43.45910 -116.07768 11787 ft 175 kts 122°
2026-04-27 17:44 43.45259 -116.06340 12034 ft 177 kts 122°
2026-04-27 17:44 43.44613 -116.04920 12279 ft 177 kts 122°
2026-04-27 17:44 43.43958 -116.03480 12529 ft 178 kts 122°
2026-04-27 17:44 43.43302 -116.02037 12760 ft 178 kts 122°
2026-04-27 17:45 43.42645 -116.00597 12974 ft 178 kts 122°
2026-04-27 17:45 43.41984 -115.99149 13168 ft 179 kts 122°
2026-04-27 17:45 43.41316 -115.97686 13327 ft 182 kts 123°
2026-04-27 17:45 43.40633 -115.96195 13455 ft 185 kts 123°
2026-04-27 17:46 43.39937 -115.94682 13551 ft 190 kts 123°
2026-04-27 17:46 43.39192 -115.93126 13530 ft 200 kts 127°
2026-04-27 17:46 43.38320 -115.91627 13503 ft 207 kts 132°
2026-04-27 17:46 43.37378 -115.90101 13503 ft 211 kts 132°
2026-04-27 17:47 43.36422 -115.88559 13505 ft 213 kts 132°
2026-04-27 17:47 43.35772 -115.87512 13506 ft 214 kts 132°
2026-04-27 17:47 43.34490 -115.85445 13498 ft 216 kts 132°
2026-04-27 17:47 43.33511 -115.83864 13506 ft 217 kts 132°
2026-04-27 17:48 43.32532 -115.82285 13506 ft 217 kts 132°
2026-04-27 17:48 43.31552 -115.80699 13504 ft 217 kts 132°
2026-04-27 17:48 43.30571 -115.79118 13503 ft 217 kts 132°
2026-04-27 17:48 43.29590 -115.77538 13504 ft 217 kts 132°
2026-04-27 17:49 43.28609 -115.75959 13504 ft 217 kts 132°
2026-04-27 17:49 43.27626 -115.74376 13503 ft 217 kts 132°
2026-04-27 17:49 43.26647 -115.72797 13503 ft 217 kts 132°
2026-04-27 17:49 43.25679 -115.71241 13504 ft 217 kts 132°
2026-04-27 17:50 43.24698 -115.69666 13504 ft 217 kts 132°
2026-04-27 17:50 43.22735 -115.66517 13504 ft 217 kts 133°
2026-04-27 17:50 43.21754 -115.64946 13503 ft 217 kts 133°
2026-04-27 17:51 43.20771 -115.63371 13504 ft 217 kts 133°
2026-04-27 17:51 43.19792 -115.61804 13504 ft 216 kts 133°
2026-04-27 17:51 43.18814 -115.60242 13502 ft 216 kts 132°
2026-04-27 17:51 43.18167 -115.59205 13504 ft 216 kts 132°
2026-04-27 17:52 43.17190 -115.57638 13504 ft 216 kts 133°
2026-04-27 17:52 43.16213 -115.56076 13502 ft 216 kts 133°
2026-04-27 17:52 43.15238 -115.54519 13502 ft 216 kts 133°
2026-04-27 17:52 43.14261 -115.52957 13503 ft 215 kts 133°
2026-04-27 17:53 43.13285 -115.51395 13504 ft 215 kts 133°
2026-04-27 17:53 43.12311 -115.49837 13504 ft 215 kts 133°
2026-04-27 17:53 43.11334 -115.48276 13504 ft 215 kts 133°
2026-04-27 17:53 43.10371 -115.46740 13504 ft 215 kts 133°
2026-04-27 17:54 43.09383 -115.45166 13504 ft 215 kts 133°
2026-04-27 17:54 43.08419 -115.43630 13503 ft 216 kts 133°
2026-04-27 17:54 43.07441 -115.42071 13504 ft 216 kts 133°
2026-04-27 17:54 43.06459 -115.40508 13504 ft 216 kts 133°
2026-04-27 17:55 43.05479 -115.38950 13503 ft 216 kts 133°
2026-04-27 17:55 43.04498 -115.37393 13503 ft 216 kts 133°
2026-04-27 17:55 43.03515 -115.35834 13504 ft 216 kts 133°
2026-04-27 17:55 43.02535 -115.34278 13503 ft 216 kts 133°
2026-04-27 17:56 43.01651 -115.32618 13494 ft 216 kts 122°
2026-04-27 17:56 43.01003 -115.30789 13510 ft 216 kts 115°
2026-04-27 17:56 43.00414 -115.28892 13508 ft 217 kts 114°
2026-04-27 17:56 42.99833 -115.26984 13504 ft 218 kts 114°
2026-04-27 17:57 42.99253 -115.25068 13502 ft 218 kts 114°
2026-04-27 17:57 42.98677 -115.23155 13505 ft 218 kts 114°
2026-04-27 17:57 42.98099 -115.21236 13503 ft 218 kts 114°
2026-04-27 17:57 42.97520 -115.19317 13503 ft 218 kts 114°
2026-04-27 17:58 42.96949 -115.17428 13504 ft 218 kts 114°
2026-04-27 17:58 42.96370 -115.15519 13503 ft 217 kts 114°
2026-04-27 17:58 42.95791 -115.13610 13503 ft 217 kts 114°
2026-04-27 17:58 42.95212 -115.11706 13502 ft 217 kts 114°
2026-04-27 17:59 42.94634 -115.09804 13505 ft 217 kts 114°
2026-04-27 17:59 42.94054 -115.07899 13503 ft 217 kts 114°
2026-04-27 17:59 42.93475 -115.05998 13503 ft 217 kts 114°
2026-04-27 17:59 42.92896 -115.04099 13504 ft 217 kts 114°
2026-04-27 18:00 42.92316 -115.02201 13504 ft 217 kts 114°
2026-04-27 18:00 42.91734 -115.00298 13504 ft 217 kts 114°
2026-04-27 18:00 42.91154 -114.98402 13503 ft 217 kts 114°
2026-04-27 18:00 42.90574 -114.96503 13503 ft 217 kts 114°
2026-04-27 18:01 42.89992 -114.94600 13501 ft 217 kts 114°
2026-04-27 18:01 42.89411 -114.92705 13505 ft 216 kts 114°
2026-04-27 18:01 42.88829 -114.90811 13505 ft 217 kts 114°
2026-04-27 18:01 42.88255 -114.88937 13503 ft 217 kts 114°
2026-04-27 18:02 42.87671 -114.87036 13504 ft 217 kts 114°
2026-04-27 18:02 42.87088 -114.85139 13503 ft 217 kts 114°
2026-04-27 18:02 42.86506 -114.83243 13503 ft 217 kts 114°
2026-04-27 18:02 42.85922 -114.81346 13503 ft 217 kts 115°
2026-04-27 18:03 42.85337 -114.79451 13505 ft 216 kts 115°
2026-04-27 18:03 42.84754 -114.77560 13504 ft 217 kts 115°
2026-04-27 18:03 42.84176 -114.75687 13504 ft 217 kts 115°
2026-04-27 18:03 42.83595 -114.73788 13503 ft 217 kts 114°
2026-04-27 18:04 42.83036 -114.71882 13503 ft 217 kts 113°
2026-04-27 18:04 42.82488 -114.69971 13503 ft 217 kts 113°
2026-04-27 18:04 42.81942 -114.68059 13503 ft 217 kts 113°
2026-04-27 18:04 42.81394 -114.66143 13497 ft 217 kts 113°
2026-04-27 18:05 42.80844 -114.64227 13493 ft 217 kts 113°
2026-04-27 18:05 42.80294 -114.62318 13494 ft 217 kts 113°
2026-04-27 18:05 42.79741 -114.60403 13494 ft 216 kts 114°
2026-04-27 18:05 42.79190 -114.58502 13495 ft 216 kts 114°
2026-04-27 18:06 42.78643 -114.56617 13494 ft 216 kts 114°
2026-04-27 18:06 42.78088 -114.54708 13491 ft 216 kts 114°
2026-04-27 18:06 42.77533 -114.52798 13484 ft 217 kts 114°
2026-04-27 18:06 42.76979 -114.50894 13484 ft 216 kts 114°
2026-04-27 18:07 42.76425 -114.48991 13486 ft 216 kts 114°
2026-04-27 18:07 42.75870 -114.47089 13485 ft 216 kts 114°
2026-04-27 18:07 42.75315 -114.45185 13485 ft 216 kts 114°
2026-04-27 18:07 42.74760 -114.43286 13484 ft 216 kts 114°
2026-04-27 18:08 42.74204 -114.41384 13485 ft 216 kts 114°
2026-04-27 18:08 42.73655 -114.39509 13484 ft 216 kts 114°
2026-04-27 18:08 42.73099 -114.37609 13486 ft 216 kts 114°
2026-04-27 18:08 42.72542 -114.35707 13484 ft 216 kts 114°
2026-04-27 18:09 42.71986 -114.33811 13486 ft 216 kts 114°
2026-04-27 18:09 42.71431 -114.31915 13485 ft 216 kts 114°
2026-04-27 18:09 42.70875 -114.30019 13485 ft 216 kts 114°
2026-04-27 18:09 42.70318 -114.28120 13484 ft 216 kts 114°
2026-04-27 18:10 42.69761 -114.26227 13486 ft 216 kts 114°
2026-04-27 18:10 42.69203 -114.24330 13486 ft 216 kts 114°
2026-04-27 18:10 42.68654 -114.22464 13485 ft 216 kts 114°
2026-04-27 18:10 42.68096 -114.20570 13483 ft 216 kts 114°
2026-04-27 18:11 42.67539 -114.18679 13485 ft 215 kts 114°
2026-04-27 18:11 42.66981 -114.16789 13486 ft 215 kts 114°
2026-04-27 18:11 42.66422 -114.14896 13484 ft 215 kts 114°
2026-04-27 18:11 42.65864 -114.13008 13485 ft 215 kts 114°
2026-04-27 18:12 42.65305 -114.11119 13484 ft 215 kts 114°
2026-04-27 18:12 42.64747 -114.09232 13485 ft 215 kts 114°
2026-04-27 18:12 42.64185 -114.07337 13485 ft 215 kts 114°
2026-04-27 18:12 42.63626 -114.05451 13484 ft 215 kts 114°
2026-04-27 18:13 42.63067 -114.03565 13487 ft 215 kts 114°
2026-04-27 18:13 42.62514 -114.01701 13485 ft 216 kts 114°
2026-04-27 18:13 42.61955 -113.99814 13485 ft 215 kts 114°
2026-04-27 18:13 42.61394 -113.97920 13480 ft 216 kts 114°
2026-04-27 18:14 42.60835 -113.96028 13477 ft 216 kts 115°
2026-04-27 18:14 42.60271 -113.94137 13475 ft 216 kts 115°
2026-04-27 18:14 42.59706 -113.92244 13477 ft 217 kts 115°
2026-04-27 18:14 42.59140 -113.90350 13475 ft 217 kts 115°
2026-04-27 18:15 42.58575 -113.88458 13472 ft 216 kts 115°
2026-04-27 18:15 42.58010 -113.86568 13480 ft 216 kts 115°
2026-04-27 18:15 42.57467 -113.84668 13473 ft 216 kts 113°
2026-04-27 18:15 42.56961 -113.82749 13476 ft 216 kts 112°
2026-04-27 18:16 42.56467 -113.80824 13475 ft 216 kts 112°
2026-04-27 18:16 42.55974 -113.78894 13477 ft 216 kts 112°
2026-04-27 18:16 42.55479 -113.76968 13475 ft 216 kts 112°
2026-04-27 18:16 42.54981 -113.75042 13479 ft 217 kts 112°
2026-04-27 18:17 42.54480 -113.73113 13476 ft 217 kts 112°
2026-04-27 18:17 42.53981 -113.71205 13475 ft 218 kts 112°
2026-04-27 18:17 42.53475 -113.69266 13474 ft 218 kts 112°
2026-04-27 18:17 42.52969 -113.67331 13472 ft 217 kts 112°
2026-04-27 18:18 42.52462 -113.65399 13474 ft 217 kts 112°
2026-04-27 18:18 42.51955 -113.63476 13475 ft 217 kts 112°
2026-04-27 18:18 42.51447 -113.61555 13473 ft 216 kts 112°
2026-04-27 18:18 42.50939 -113.59638 13474 ft 216 kts 112°
2026-04-27 18:19 42.50433 -113.57723 13477 ft 216 kts 112°
2026-04-27 18:19 42.49926 -113.55804 13477 ft 216 kts 112°
2026-04-27 18:19 42.49418 -113.53887 13472 ft 216 kts 112°
2026-04-27 18:19 42.48911 -113.51971 13476 ft 215 kts 112°
2026-04-27 18:20 42.48411 -113.50085 13479 ft 216 kts 112°
2026-04-27 18:20 42.47902 -113.48168 13476 ft 216 kts 112°
2026-04-27 18:20 42.47393 -113.46252 13478 ft 217 kts 112°
2026-04-27 18:20 42.46883 -113.44332 13472 ft 217 kts 112°
2026-04-27 18:21 42.46371 -113.42405 13476 ft 216 kts 112°
2026-04-27 18:21 42.45860 -113.40483 13478 ft 217 kts 112°
2026-04-27 18:21 42.45349 -113.38564 13475 ft 217 kts 112°
2026-04-27 18:21 42.44845 -113.36669 13477 ft 217 kts 112°
2026-04-27 18:22 42.44333 -113.34747 13474 ft 217 kts 112°
2026-04-27 18:22 42.43822 -113.32831 13475 ft 216 kts 112°
2026-04-27 18:22 42.43309 -113.30913 13478 ft 216 kts 112°
2026-04-27 18:22 42.42796 -113.28995 13477 ft 216 kts 113°
2026-04-27 18:23 42.42283 -113.27077 13475 ft 216 kts 113°
2026-04-27 18:23 42.41776 -113.25185 13479 ft 216 kts 113°
2026-04-27 18:23 42.41264 -113.23272 13473 ft 216 kts 113°
2026-04-27 18:23 42.40752 -113.21361 13478 ft 216 kts 113°
2026-04-27 18:24 42.40237 -113.19445 13476 ft 216 kts 113°
2026-04-27 18:24 42.39723 -113.17528 13474 ft 216 kts 113°
2026-04-27 18:24 42.39209 -113.15613 13476 ft 216 kts 113°
2026-04-27 18:24 42.38695 -113.13702 13477 ft 216 kts 113°
2026-04-27 18:25 42.38180 -113.11794 13475 ft 216 kts 113°
2026-04-27 18:25 42.37665 -113.09889 13476 ft 216 kts 113°
2026-04-27 18:25 42.37157 -113.08007 13478 ft 216 kts 112°
2026-04-27 18:25 42.36644 -113.06097 13472 ft 216 kts 112°
2026-04-27 18:26 42.36132 -113.04191 13475 ft 215 kts 112°
2026-04-27 18:26 42.35619 -113.02290 13476 ft 215 kts 113°
2026-04-27 18:26 42.35103 -113.00385 13474 ft 215 kts 113°
2026-04-27 18:26 42.34589 -112.98488 13475 ft 215 kts 113°
2026-04-27 18:27 42.34072 -112.96585 13481 ft 215 kts 113°
2026-04-27 18:27 42.33557 -112.94682 13474 ft 216 kts 112°
2026-04-27 18:27 42.33042 -112.92778 13474 ft 216 kts 113°
2026-04-27 18:27 42.32527 -112.90879 13473 ft 215 kts 113°
2026-04-27 18:28 42.32009 -112.88981 13474 ft 215 kts 113°
2026-04-27 18:28 42.31493 -112.87090 13477 ft 214 kts 113°
2026-04-27 18:28 42.30979 -112.85193 13475 ft 215 kts 113°
2026-04-27 18:28 42.30472 -112.83322 13475 ft 215 kts 113°
2026-04-27 18:29 42.29956 -112.81428 13477 ft 215 kts 113°
2026-04-27 18:29 42.29437 -112.79529 13475 ft 215 kts 113°
2026-04-27 18:29 42.28917 -112.77633 13475 ft 214 kts 113°
2026-04-27 18:29 42.28399 -112.75746 13478 ft 214 kts 113°
2026-04-27 18:30 42.27881 -112.73858 13476 ft 215 kts 113°
2026-04-27 18:30 42.27364 -112.71967 13476 ft 215 kts 113°
2026-04-27 18:30 42.26846 -112.70076 13477 ft 215 kts 113°
2026-04-27 18:30 42.26327 -112.68179 13474 ft 215 kts 113°
2026-04-27 18:31 42.25809 -112.66285 13474 ft 215 kts 113°
2026-04-27 18:31 42.25297 -112.64418 13475 ft 215 kts 113°
2026-04-27 18:31 42.24778 -112.62529 13476 ft 215 kts 113°
2026-04-27 18:31 42.24259 -112.60638 13476 ft 215 kts 113°
2026-04-27 18:32 42.23739 -112.58750 13477 ft 215 kts 113°
2026-04-27 18:32 42.23219 -112.56861 13476 ft 215 kts 113°
2026-04-27 18:32 42.22698 -112.54971 13478 ft 215 kts 113°
2026-04-27 18:32 42.22177 -112.53077 13485 ft 215 kts 113°
2026-04-27 18:33 42.21656 -112.51193 13485 ft 214 kts 113°
2026-04-27 18:33 42.21134 -112.49309 13485 ft 214 kts 113°
2026-04-27 18:33 42.20614 -112.47430 13483 ft 214 kts 113°
2026-04-27 18:33 42.20118 -112.45538 13479 ft 213 kts 110°
2026-04-27 18:34 42.19744 -112.43601 13479 ft 214 kts 104°
2026-04-27 18:34 42.19431 -112.41644 13489 ft 213 kts 104°
2026-04-27 18:34 42.19113 -112.39690 13506 ft 213 kts 105°
2026-04-27 18:34 42.18793 -112.37734 13504 ft 214 kts 105°
2026-04-27 18:35 42.18479 -112.35802 13504 ft 214 kts 105°
2026-04-27 18:35 42.18160 -112.33846 13507 ft 214 kts 104°
2026-04-27 18:35 42.17840 -112.31887 13510 ft 214 kts 105°
2026-04-27 18:35 42.17522 -112.29916 13513 ft 215 kts 105°
2026-04-27 18:36 42.17202 -112.27946 13515 ft 215 kts 105°
2026-04-27 18:36 42.16882 -112.25975 13515 ft 215 kts 105°
2026-04-27 18:36 42.16559 -112.24007 13511 ft 215 kts 105°
2026-04-27 18:36 42.16237 -112.22041 13514 ft 215 kts 105°
2026-04-27 18:37 42.15915 -112.20072 13515 ft 215 kts 105°
2026-04-27 18:37 42.15594 -112.18098 13508 ft 215 kts 105°
2026-04-27 18:37 42.15273 -112.16129 13511 ft 215 kts 105°
2026-04-27 18:37 42.14950 -112.14160 13512 ft 215 kts 105°
2026-04-27 18:38 42.14628 -112.12197 13513 ft 215 kts 105°
2026-04-27 18:38 42.14305 -112.10230 13515 ft 215 kts 105°
2026-04-27 18:38 42.13987 -112.08292 13515 ft 215 kts 105°
2026-04-27 18:38 42.13664 -112.06321 13508 ft 215 kts 105°
2026-04-27 18:39 42.13339 -112.04351 13514 ft 215 kts 105°
2026-04-27 18:39 42.13014 -112.02380 13513 ft 215 kts 105°
2026-04-27 18:39 42.12688 -112.00412 13512 ft 215 kts 105°
2026-04-27 18:39 42.12363 -111.98441 13512 ft 215 kts 105°
2026-04-27 18:40 42.12038 -111.96476 13514 ft 215 kts 105°
2026-04-27 18:40 42.11715 -111.94531 13514 ft 215 kts 105°
2026-04-27 18:40 42.11389 -111.92563 13512 ft 215 kts 105°
2026-04-27 18:40 42.11063 -111.90596 13513 ft 215 kts 105°
2026-04-27 18:41 42.10735 -111.88623 13511 ft 215 kts 105°
2026-04-27 18:41 42.10409 -111.86655 13512 ft 215 kts 105°
2026-04-27 18:41 42.10082 -111.84690 13512 ft 215 kts 105°
2026-04-27 18:41 42.09860 -111.83364 13511 ft 215 kts 105°
2026-04-27 18:42 42.09537 -111.81429 13511 ft 214 kts 105°
2026-04-27 18:42 42.09317 -111.80108 13512 ft 214 kts 105°
2026-04-27 18:42 42.08884 -111.77522 13508 ft 214 kts 105°
2026-04-27 18:42 42.08558 -111.75570 13508 ft 214 kts 105°
2026-04-27 18:43 42.08233 -111.73621 13515 ft 213 kts 105°
2026-04-27 18:43 42.07908 -111.71669 13516 ft 214 kts 105°
2026-04-27 18:43 42.07578 -111.69709 13513 ft 214 kts 105°
2026-04-27 18:43 42.07247 -111.67751 13520 ft 214 kts 105°
2026-04-27 18:44 42.06915 -111.65790 13513 ft 215 kts 105°
2026-04-27 18:44 42.06581 -111.63819 13520 ft 216 kts 105°
2026-04-27 18:44 42.06248 -111.61842 13507 ft 216 kts 105°
2026-04-27 18:44 42.05915 -111.59871 13514 ft 216 kts 105°
2026-04-27 18:45 42.05582 -111.57905 13514 ft 216 kts 105°
2026-04-27 18:45 42.05249 -111.55925 13512 ft 217 kts 105°
2026-04-27 18:45 42.04916 -111.53950 13511 ft 217 kts 105°
2026-04-27 18:45 42.04580 -111.51974 13503 ft 217 kts 105°
2026-04-27 18:46 42.04242 -111.49995 13501 ft 216 kts 105°
2026-04-27 18:46 42.03909 -111.48056 13500 ft 215 kts 105°
2026-04-27 18:46 42.03575 -111.46096 13504 ft 214 kts 105°
2026-04-27 18:46 42.03243 -111.44140 13493 ft 215 kts 105°
2026-04-27 18:47 42.02913 -111.42184 13493 ft 214 kts 105°
2026-04-27 18:47 42.02581 -111.40236 13504 ft 213 kts 105°
2026-04-27 18:47 42.02246 -111.38293 13504 ft 213 kts 106°
2026-04-27 18:47 42.01911 -111.36353 13502 ft 212 kts 105°
2026-04-27 18:48 42.01580 -111.34417 13506 ft 213 kts 105°
2026-04-27 18:48 42.01248 -111.32467 13506 ft 214 kts 106°
2026-04-27 18:48 42.00911 -111.30503 13505 ft 215 kts 106°
2026-04-27 18:48 42.00576 -111.28542 13503 ft 215 kts 105°
2026-04-27 18:49 42.00239 -111.26581 13503 ft 215 kts 105°
2026-04-27 18:49 41.99902 -111.24622 13504 ft 215 kts 106°
2026-04-27 18:49 41.99566 -111.22669 13503 ft 214 kts 106°
2026-04-27 18:49 41.99229 -111.20718 13499 ft 214 kts 106°
2026-04-27 18:50 41.98893 -111.18773 13503 ft 213 kts 106°
2026-04-27 18:50 41.98558 -111.16859 13503 ft 213 kts 106°
2026-04-27 18:50 41.98223 -111.14927 13501 ft 212 kts 106°
2026-04-27 18:50 41.97889 -111.13002 13504 ft 211 kts 106°
2026-04-27 18:51 41.97554 -111.11076 13520 ft 212 kts 106°
2026-04-27 18:51 41.97218 -111.09130 13507 ft 214 kts 106°
2026-04-27 18:51 41.96876 -111.07170 13501 ft 216 kts 106°
2026-04-27 18:51 41.96533 -111.05201 13498 ft 217 kts 106°
2026-04-27 18:52 41.96188 -111.03228 13504 ft 217 kts 106°
2026-04-27 18:52 41.95843 -111.01253 13504 ft 217 kts 106°
2026-04-27 18:52 41.95495 -110.99273 13498 ft 218 kts 106°
2026-04-27 18:53 41.94799 -110.95307 13494 ft 218 kts 106°
2026-04-27 18:53 41.94455 -110.93346 13490 ft 219 kts 106°
2026-04-27 18:53 41.94106 -110.91353 13485 ft 219 kts 106°
2026-04-27 18:53 41.93757 -110.89360 13484 ft 219 kts 106°
2026-04-27 18:54 41.93408 -110.87363 13485 ft 220 kts 106°
2026-04-27 18:54 41.93058 -110.85365 13485 ft 220 kts 106°
2026-04-27 18:54 41.92707 -110.83370 13482 ft 219 kts 106°
2026-04-27 18:54 41.92355 -110.81380 13487 ft 219 kts 107°
2026-04-27 18:55 41.91999 -110.79383 13486 ft 220 kts 107°
2026-04-27 18:55 41.91644 -110.77378 13486 ft 221 kts 106°
2026-04-27 18:55 41.91290 -110.75374 13482 ft 220 kts 107°
2026-04-27 18:55 41.90936 -110.73373 13484 ft 220 kts 107°
2026-04-27 18:56 41.90579 -110.71374 13479 ft 220 kts 107°
2026-04-27 18:56 41.90224 -110.69384 13482 ft 218 kts 107°
2026-04-27 18:56 41.89871 -110.67405 13487 ft 218 kts 106°
2026-04-27 18:56 41.89518 -110.65423 13482 ft 218 kts 106°
2026-04-27 18:57 41.89166 -110.63441 13482 ft 218 kts 107°
2026-04-27 18:57 41.88814 -110.61461 13486 ft 218 kts 106°
2026-04-27 18:57 41.88468 -110.59506 13487 ft 218 kts 107°
2026-04-27 18:57 41.88114 -110.57520 13483 ft 219 kts 107°
2026-04-27 18:58 41.87760 -110.55538 13481 ft 218 kts 107°
2026-04-27 18:58 41.87521 -110.54202 13482 ft 218 kts 107°
2026-04-27 18:58 41.87050 -110.51588 13485 ft 216 kts 107°
2026-04-27 18:58 41.86697 -110.49632 13483 ft 216 kts 107°
2026-04-27 18:59 41.86346 -110.47669 13486 ft 216 kts 107°
2026-04-27 18:59 41.85993 -110.45707 13484 ft 216 kts 107°
2026-04-27 18:59 41.85644 -110.43775 13487 ft 216 kts 107°
2026-04-27 18:59 41.85288 -110.41814 13485 ft 217 kts 107°
2026-04-27 19:00 41.84932 -110.39845 13485 ft 217 kts 107°
2026-04-27 19:00 41.84578 -110.37882 13485 ft 216 kts 107°
2026-04-27 19:00 41.84223 -110.35916 13485 ft 216 kts 107°
2026-04-27 19:00 41.83868 -110.33958 13485 ft 215 kts 107°
2026-04-27 19:01 41.83514 -110.32004 13485 ft 216 kts 107°
2026-04-27 19:01 41.83159 -110.30046 13485 ft 216 kts 107°
2026-04-27 19:01 41.82803 -110.28090 13485 ft 216 kts 107°
2026-04-27 19:01 41.82448 -110.26133 13485 ft 216 kts 107°
2026-04-27 19:02 41.82092 -110.24172 13485 ft 216 kts 107°
2026-04-27 19:02 41.81738 -110.22214 13493 ft 216 kts 107°
2026-04-27 19:02 41.81384 -110.20286 13496 ft 216 kts 107°
2026-04-27 19:02 41.81026 -110.18332 13494 ft 215 kts 107°
2026-04-27 19:03 41.80668 -110.16376 13494 ft 215 kts 107°
2026-04-27 19:03 41.80312 -110.14433 13495 ft 214 kts 107°
2026-04-27 19:03 41.79957 -110.12496 13494 ft 214 kts 107°
2026-04-27 19:03 41.79722 -110.11215 13493 ft 213 kts 107°
2026-04-27 19:04 41.79249 -110.08633 13493 ft 213 kts 107°
2026-04-27 19:04 41.78894 -110.06710 13494 ft 212 kts 107°
2026-04-27 19:04 41.78542 -110.04800 13504 ft 211 kts 107°
2026-04-27 19:04 41.78193 -110.02891 13489 ft 211 kts 107°
2026-04-27 19:05 41.77841 -110.00983 13489 ft 210 kts 107°
2026-04-27 19:05 41.77493 -109.99101 13489 ft 210 kts 107°
2026-04-27 19:05 41.77143 -109.97204 13494 ft 210 kts 107°
2026-04-27 19:05 41.76791 -109.95303 13494 ft 210 kts 107°
2026-04-27 19:06 41.76440 -109.93409 13494 ft 209 kts 107°
2026-04-27 19:06 41.76090 -109.91518 13493 ft 209 kts 107°
2026-04-27 19:06 41.75739 -109.89630 13493 ft 209 kts 107°
2026-04-27 19:06 41.75388 -109.87738 13494 ft 208 kts 107°
2026-04-27 19:07 41.75040 -109.85859 13495 ft 209 kts 107°
2026-04-27 19:07 41.74689 -109.83969 13496 ft 209 kts 107°
2026-04-27 19:07 41.74338 -109.82084 13503 ft 209 kts 107°
2026-04-27 19:07 41.73986 -109.80195 13504 ft 209 kts 107°
2026-04-27 19:08 41.73634 -109.78310 13504 ft 209 kts 107°
2026-04-27 19:08 41.73283 -109.76423 13503 ft 208 kts 107°
2026-04-27 19:08 41.72936 -109.74565 13503 ft 208 kts 107°
2026-04-27 19:08 41.72584 -109.72684 13504 ft 208 kts 107°
2026-04-27 19:09 41.72231 -109.70801 13505 ft 209 kts 107°
2026-04-27 19:09 41.71876 -109.68914 13506 ft 209 kts 107°
2026-04-27 19:09 41.71521 -109.67024 13502 ft 209 kts 107°
2026-04-27 19:09 41.71165 -109.65130 13497 ft 209 kts 107°
2026-04-27 19:10 41.70809 -109.63242 13492 ft 209 kts 107°
2026-04-27 19:10 41.70456 -109.61358 13491 ft 208 kts 107°
2026-04-27 19:10 41.70101 -109.59478 13494 ft 207 kts 107°
2026-04-27 19:10 41.69868 -109.58243 13493 ft 207 kts 107°
2026-04-27 19:11 41.69399 -109.55749 13492 ft 206 kts 107°
2026-04-27 19:11 41.69054 -109.53920 13497 ft 205 kts 107°
2026-04-27 19:11 41.68706 -109.52071 13497 ft 205 kts 108°
2026-04-27 19:11 41.68356 -109.50219 13494 ft 205 kts 108°
2026-04-27 19:12 41.68004 -109.48363 13508 ft 207 kts 108°
2026-04-27 19:12 41.67647 -109.46479 13511 ft 211 kts 108°
2026-04-27 19:12 41.67282 -109.44564 13508 ft 214 kts 108°
2026-04-27 19:12 41.66913 -109.42623 13499 ft 216 kts 108°
2026-04-27 19:13 41.66539 -109.40665 13507 ft 217 kts 108°
2026-04-27 19:13 41.66162 -109.38704 13505 ft 218 kts 108°
2026-04-27 19:13 41.65788 -109.36738 13504 ft 218 kts 108°
2026-04-27 19:13 41.65413 -109.34770 13502 ft 218 kts 108°
2026-04-27 19:14 41.65043 -109.32826 13501 ft 218 kts 108°
2026-04-27 19:14 41.64667 -109.30867 13501 ft 217 kts 108°
2026-04-27 19:14 41.64294 -109.28920 13495 ft 215 kts 108°
2026-04-27 19:14 41.63925 -109.26985 13499 ft 214 kts 108°
2026-04-27 19:15 41.63554 -109.25050 13505 ft 214 kts 108°
2026-04-27 19:15 41.63183 -109.23121 13504 ft 214 kts 108°
2026-04-27 19:15 41.62812 -109.21195 13503 ft 214 kts 108°
2026-04-27 19:15 41.62441 -109.19264 13505 ft 214 kts 108°
2026-04-27 19:16 41.62073 -109.17357 13504 ft 215 kts 108°
2026-04-27 19:16 41.61821 -109.16050 13505 ft 215 kts 108°
2026-04-27 19:16 41.61324 -109.13482 13504 ft 215 kts 108°
2026-04-27 19:16 41.60951 -109.11546 13508 ft 216 kts 108°
2026-04-27 19:17 41.60576 -109.09603 13507 ft 216 kts 108°
2026-04-27 19:17 41.60200 -109.07652 13505 ft 217 kts 108°
2026-04-27 19:17 41.59821 -109.05703 13505 ft 218 kts 108°
2026-04-27 19:17 41.59440 -109.03736 13505 ft 219 kts 108°
2026-04-27 19:18 41.58966 -109.01807 13513 ft 219 kts 120°
2026-04-27 19:18 41.58158 -109.00098 13502 ft 217 kts 130°
2026-04-27 19:18 41.57246 -108.98500 13494 ft 215 kts 133°
2026-04-27 19:18 41.56311 -108.96951 13500 ft 214 kts 134°
2026-04-27 19:19 41.55364 -108.95424 13500 ft 213 kts 135°
2026-04-27 19:19 41.54417 -108.93906 13502 ft 212 kts 135°
2026-04-27 19:19 41.53490 -108.92413 13502 ft 212 kts 135°
2026-04-27 19:19 41.52550 -108.90893 13504 ft 212 kts 134°
2026-04-27 19:20 41.51616 -108.89377 13501 ft 212 kts 134°
2026-04-27 19:20 41.50681 -108.87854 13505 ft 212 kts 134°
2026-04-27 19:20 41.49744 -108.86326 13505 ft 212 kts 134°
2026-04-27 19:20 41.48817 -108.84815 13509 ft 212 kts 134°
2026-04-27 19:21 41.47880 -108.83285 13505 ft 213 kts 134°
2026-04-27 19:21 41.46938 -108.81748 13504 ft 214 kts 134°
2026-04-27 19:21 41.45996 -108.80211 13504 ft 214 kts 134°
2026-04-27 19:21 41.45054 -108.78672 13503 ft 214 kts 134°
2026-04-27 19:22 41.44112 -108.77133 13504 ft 214 kts 134°
2026-04-27 19:22 41.43167 -108.75592 13505 ft 214 kts 134°
2026-04-27 19:22 41.42220 -108.74050 13503 ft 215 kts 134°
2026-04-27 19:22 41.41286 -108.72529 13503 ft 214 kts 134°
2026-04-27 19:23 41.40342 -108.70991 13503 ft 214 kts 134°
2026-04-27 19:23 41.39399 -108.69455 13505 ft 214 kts 134°
2026-04-27 19:23 41.38458 -108.67925 13505 ft 214 kts 134°
2026-04-27 19:23 41.37515 -108.66392 13506 ft 214 kts 134°
2026-04-27 19:24 41.36568 -108.64853 13501 ft 215 kts 134°
2026-04-27 19:24 41.35623 -108.63316 13502 ft 214 kts 134°
2026-04-27 19:24 41.34680 -108.61781 13502 ft 214 kts 134°
2026-04-27 19:24 41.33748 -108.60269 13502 ft 214 kts 134°
2026-04-27 19:25 41.32805 -108.58741 13504 ft 214 kts 134°
2026-04-27 19:25 41.31861 -108.57210 13503 ft 213 kts 134°
2026-04-27 19:25 41.30919 -108.55684 13503 ft 213 kts 134°
2026-04-27 19:25 41.29974 -108.54155 13504 ft 213 kts 134°
2026-04-27 19:26 41.29031 -108.52630 13503 ft 214 kts 134°
2026-04-27 19:26 41.28086 -108.51102 13504 ft 213 kts 134°
2026-04-27 19:26 41.27143 -108.49579 13504 ft 214 kts 134°
2026-04-27 19:26 41.26519 -108.48571 13504 ft 213 kts 134°
2026-04-27 19:27 41.25576 -108.47046 13503 ft 214 kts 134°
2026-04-27 19:27 41.24630 -108.45521 13504 ft 214 kts 134°
2026-04-27 19:27 41.23685 -108.43995 13503 ft 214 kts 134°
2026-04-27 19:27 41.22435 -108.41974 13503 ft 214 kts 134°
2026-04-27 19:28 41.21797 -108.40945 13504 ft 214 kts 134°
2026-04-27 19:28 41.20851 -108.39424 13504 ft 214 kts 134°
2026-04-27 19:28 41.19905 -108.37901 13503 ft 214 kts 134°
2026-04-27 19:28 41.18960 -108.36378 13503 ft 214 kts 134°
2026-04-27 19:29 41.18015 -108.34856 13504 ft 214 kts 134°
2026-04-27 19:29 41.17069 -108.33337 13504 ft 214 kts 134°
2026-04-27 19:29 41.16120 -108.31813 13503 ft 214 kts 134°
2026-04-27 19:29 41.15188 -108.30314 13503 ft 214 kts 134°
2026-04-27 19:30 41.14240 -108.28790 13503 ft 214 kts 134°
2026-04-27 19:30 41.13288 -108.27266 13507 ft 214 kts 134°
2026-04-27 19:30 41.12341 -108.25750 13513 ft 213 kts 134°
2026-04-27 19:30 41.11393 -108.24232 13513 ft 213 kts 134°
2026-04-27 19:31 41.10449 -108.22718 13513 ft 213 kts 134°
2026-04-27 19:31 41.09503 -108.21199 13512 ft 213 kts 134°
2026-04-27 19:31 41.08571 -108.19707 13513 ft 213 kts 134°
2026-04-27 19:31 41.07624 -108.18191 13513 ft 213 kts 134°
2026-04-27 19:32 41.06677 -108.16678 13513 ft 213 kts 134°
2026-04-27 19:32 41.05728 -108.15159 13513 ft 214 kts 134°
2026-04-27 19:32 41.04781 -108.13645 13514 ft 213 kts 134°
2026-04-27 19:32 41.03834 -108.12134 13510 ft 213 kts 134°
2026-04-27 19:33 41.02891 -108.10628 13510 ft 212 kts 134°
2026-04-27 19:33 41.02267 -108.09634 13509 ft 211 kts 134°
2026-04-27 19:33 41.01011 -108.07631 13508 ft 210 kts 134°
2026-04-27 19:33 41.00094 -108.06167 13510 ft 209 kts 135°
2026-04-27 19:34 40.99169 -108.04695 13512 ft 207 kts 135°
2026-04-27 19:34 40.98248 -108.03226 13514 ft 206 kts 135°
2026-04-27 19:34 40.97336 -108.01773 13509 ft 205 kts 135°
2026-04-27 19:34 40.96427 -108.00327 13508 ft 203 kts 135°
2026-04-27 19:35 40.95529 -107.98901 13514 ft 201 kts 135°
2026-04-27 19:35 40.94627 -107.97478 13510 ft 201 kts 135°
2026-04-27 19:35 40.93732 -107.96063 13509 ft 200 kts 134°
2026-04-27 19:35 40.92848 -107.94655 13513 ft 198 kts 134°
2026-04-27 19:36 40.91971 -107.93259 13508 ft 196 kts 134°
2026-04-27 19:36 40.91115 -107.91894 13513 ft 194 kts 134°
2026-04-27 19:36 40.90253 -107.90524 13511 ft 193 kts 134°
2026-04-27 19:36 40.89396 -107.89163 13512 ft 191 kts 135°
2026-04-27 19:37 40.88552 -107.87824 13509 ft 189 kts 135°
2026-04-27 19:37 40.87714 -107.86495 13514 ft 187 kts 135°
2026-04-27 19:37 40.86887 -107.85183 13525 ft 184 kts 135°
2026-04-27 19:37 40.86071 -107.83890 13519 ft 182 kts 135°
2026-04-27 19:38 40.85263 -107.82611 13515 ft 180 kts 135°
2026-04-27 19:38 40.84460 -107.81342 13509 ft 179 kts 135°
2026-04-27 19:38 40.83669 -107.80090 13508 ft 177 kts 135°
2026-04-27 19:38 40.82888 -107.78855 13509 ft 174 kts 135°
2026-04-27 19:39 40.82129 -107.77654 13509 ft 171 kts 135°
2026-04-27 19:39 40.81371 -107.76455 13508 ft 168 kts 135°
2026-04-27 19:39 40.80627 -107.75278 13508 ft 165 kts 135°
2026-04-27 19:39 40.79900 -107.74129 13507 ft 162 kts 136°
2026-04-27 19:40 40.79186 -107.72999 13506 ft 158 kts 136°
2026-04-27 19:40 40.78489 -107.71898 13507 ft 154 kts 136°
2026-04-27 19:40 40.77811 -107.70825 13506 ft 150 kts 136°
2026-04-27 19:40 40.77151 -107.69779 13502 ft 146 kts 136°
2026-04-27 19:41 40.76516 -107.68772 13499 ft 140 kts 136°
2026-04-27 19:41 40.75908 -107.67806 13496 ft 133 kts 136°
2026-04-27 19:41 40.75344 -107.66906 13489 ft 124 kts 137°
2026-04-27 19:41 40.74818 -107.66056 13459 ft 117 kts 138°
2026-04-27 19:42 40.74395 -107.65162 13233 ft 124 kts 113°
2026-04-27 19:42 40.73860 -107.64245 12823 ft 131 kts 133°
2026-04-27 19:42 40.73357 -107.63341 12488 ft 133 kts 137°
2026-04-27 19:42 40.72723 -107.62574 12388 ft 111 kts 146°
2026-04-27 19:43 40.72311 -107.61696 11921 ft 135 kts 135°
2026-04-27 19:43 40.71678 -107.60914 11864 ft 109 kts 145°
2026-04-27 19:43 40.71229 -107.60094 11453 ft 130 kts 126°
2026-04-27 19:43 40.70609 -107.59305 11291 ft 111 kts 147°
2026-04-27 19:44 40.70261 -107.58440 10760 ft 137 kts 90°
2026-04-27 19:44 40.70187 -107.57319 10855 ft 107 kts 105°
2026-04-27 19:44 40.69979 -107.56290 10557 ft 122 kts 111°
2026-04-27 19:44 40.69578 -107.55407 10465 ft 114 kts 146°
2026-04-27 19:45 40.68908 -107.54859 10329 ft 108 kts 156°
2026-04-27 19:45 40.68301 -107.54295 10172 ft 110 kts 139°
2026-04-27 19:45 40.67754 -107.53591 10059 ft 109 kts 145°
2026-04-27 19:45 40.67202 -107.52906 9937 ft 109 kts 141°
2026-04-27 19:46 40.66641 -107.52252 9844 ft 107 kts 145°
2026-04-27 19:46 40.66016 -107.51719 9752 ft 106 kts 154°
2026-04-27 19:46 40.65363 -107.51265 9675 ft 105 kts 155°
2026-04-27 19:46 40.64715 -107.50822 9613 ft 105 kts 153°
2026-04-27 19:47 40.64102 -107.50299 9628 ft 106 kts 144°
2026-04-27 19:47 40.63493 -107.49622 9782 ft 123 kts 139°
2026-04-27 19:47 40.62818 -107.48791 9882 ft 144 kts 139°
2026-04-27 19:47 40.62063 -107.47767 9898 ft 165 kts 134°
2026-04-27 19:48 40.61323 -107.46537 9960 ft 177 kts 127°
2026-04-27 19:48 40.60594 -107.45163 9925 ft 193 kts 127°
2026-04-27 19:48 40.59805 -107.43676 9884 ft 203 kts 130°
2026-04-27 19:48 40.58876 -107.42215 9774 ft 212 kts 132°
2026-04-27 19:49 40.57910 -107.40713 9686 ft 218 kts 131°
2026-04-27 19:49 40.56948 -107.39156 9605 ft 221 kts 130°
2026-04-27 19:49 40.55998 -107.37550 9513 ft 224 kts 129°
2026-04-27 19:49 40.55058 -107.35918 9477 ft 223 kts 128°
2026-04-27 19:50 40.54140 -107.34304 9503 ft 220 kts 128°
2026-04-27 19:50 40.53230 -107.32693 9508 ft 219 kts 128°
2026-04-27 19:50 40.52322 -107.31082 9510 ft 218 kts 128°
2026-04-27 19:50 40.51412 -107.29482 9515 ft 218 kts 128°
2026-04-27 19:51 40.50497 -107.27895 9521 ft 218 kts 129°
2026-04-27 19:51 40.49584 -107.26335 9515 ft 218 kts 129°
2026-04-27 19:51 40.48653 -107.24763 9527 ft 218 kts 129°
2026-04-27 19:51 40.47718 -107.23197 9534 ft 218 kts 129°
2026-04-27 19:52 40.46779 -107.21629 9526 ft 218 kts 129°
2026-04-27 19:52 40.45839 -107.20060 9527 ft 218 kts 129°
2026-04-27 19:52 40.44903 -107.18495 9522 ft 218 kts 129°
2026-04-27 19:52 40.43970 -107.16933 9531 ft 218 kts 129°
2026-04-27 19:53 40.42099 -107.13792 9529 ft 218 kts 129°
2026-04-27 19:53 40.41167 -107.12223 9530 ft 218 kts 129°
2026-04-27 19:53 40.40233 -107.10650 9536 ft 220 kts 129°
2026-04-27 19:54 40.39288 -107.09061 9510 ft 221 kts 129°
2026-04-27 19:54 40.38344 -107.07482 9516 ft 219 kts 129°
2026-04-27 19:54 40.37415 -107.05931 9515 ft 219 kts 129°
2026-04-27 19:54 40.36475 -107.04360 9514 ft 219 kts 129°
2026-04-27 19:55 40.35538 -107.02792 9517 ft 218 kts 129°
2026-04-27 19:55 40.34601 -107.01224 9521 ft 218 kts 129°
2026-04-27 19:55 40.33660 -106.99660 9506 ft 218 kts 131°
2026-04-27 19:55 40.32567 -106.98293 9506 ft 217 kts 144°
2026-04-27 19:56 40.31253 -106.97319 9513 ft 217 kts 157°
2026-04-27 19:56 40.29850 -106.96573 9506 ft 217 kts 161°
2026-04-27 19:56 40.28491 -106.95750 9505 ft 216 kts 142°
2026-04-27 19:56 40.27422 -106.94372 9522 ft 216 kts 145°
2026-04-27 19:57 40.26162 -106.93353 9510 ft 216 kts 143°
2026-04-27 19:57 40.24851 -106.92429 9515 ft 216 kts 166°
2026-04-27 19:57 40.23383 -106.92030 9509 ft 216 kts 169°
2026-04-27 19:57 40.21909 -106.91649 9517 ft 216 kts 171°
2026-04-27 19:58 40.20422 -106.91325 9513 ft 218 kts 172°
2026-04-27 19:58 40.18924 -106.91017 9498 ft 218 kts 172°
2026-04-27 19:58 40.17429 -106.90723 9566 ft 214 kts 172°
2026-04-27 19:58 40.15992 -106.90440 9796 ft 204 kts 172°
2026-04-27 19:59 40.14615 -106.90163 10020 ft 197 kts 172°
2026-04-27 19:59 40.13279 -106.89878 10218 ft 192 kts 172°
2026-04-27 19:59 40.11973 -106.89597 10447 ft 188 kts 172°
2026-04-27 19:59 40.10678 -106.89484 10677 ft 185 kts 187°
2026-04-27 20:00 40.09465 -106.89864 10919 ft 179 kts 200°
2026-04-27 20:00 40.08290 -106.90370 11138 ft 177 kts 200°
2026-04-27 20:00 40.07119 -106.90839 11330 ft 175 kts 199°
2026-04-27 20:00 40.05942 -106.91262 11479 ft 177 kts 197°
2026-04-27 20:01 40.04729 -106.91637 11550 ft 183 kts 195°
2026-04-27 20:01 40.03459 -106.92001 11528 ft 191 kts 196°
2026-04-27 20:01 40.02151 -106.92415 11521 ft 195 kts 197°
2026-04-27 20:01 40.00815 -106.92821 11516 ft 199 kts 195°
2026-04-27 20:02 39.99452 -106.93205 11524 ft 201 kts 194°
2026-04-27 20:02 39.98077 -106.93578 11527 ft 203 kts 194°
2026-04-27 20:02 39.96688 -106.93947 11521 ft 204 kts 193°
2026-04-27 20:02 39.95289 -106.94306 11524 ft 205 kts 193°
2026-04-27 20:03 39.93905 -106.94655 11519 ft 205 kts 193°
2026-04-27 20:03 39.92502 -106.95008 11522 ft 205 kts 193°
2026-04-27 20:03 39.91100 -106.95365 11523 ft 206 kts 193°
2026-04-27 20:03 39.89695 -106.95724 11523 ft 206 kts 193°
2026-04-27 20:04 39.88288 -106.96090 11525 ft 206 kts 194°
2026-04-27 20:04 39.86878 -106.96471 11521 ft 207 kts 194°
2026-04-27 20:04 39.85469 -106.96861 11527 ft 208 kts 194°
2026-04-27 20:04 39.84534 -106.97124 11520 ft 208 kts 194°
2026-04-27 20:05 39.82633 -106.97664 11522 ft 208 kts 194°
2026-04-27 20:05 39.81233 -106.98053 11523 ft 208 kts 194°
2026-04-27 20:05 39.79815 -106.98436 11524 ft 208 kts 194°
2026-04-27 20:05 39.78395 -106.98818 11521 ft 208 kts 194°
2026-04-27 20:06 39.76979 -106.99199 11521 ft 208 kts 194°
2026-04-27 20:06 39.75558 -106.99583 11512 ft 209 kts 194°
2026-04-27 20:06 39.74136 -106.99968 11514 ft 208 kts 194°
2026-04-27 20:06 39.72718 -107.00352 11522 ft 208 kts 194°
2026-04-27 20:07 39.71300 -107.00737 11521 ft 208 kts 194°
2026-04-27 20:07 39.69883 -107.01121 11516 ft 208 kts 194°
2026-04-27 20:07 39.68468 -107.01505 11513 ft 208 kts 194°
2026-04-27 20:07 39.67052 -107.01876 11515 ft 208 kts 192°
2026-04-27 20:08 39.65613 -107.02122 11514 ft 209 kts 188°
2026-04-27 20:08 39.64161 -107.02279 11513 ft 210 kts 186°
2026-04-27 20:08 39.62701 -107.02407 11513 ft 210 kts 186°
2026-04-27 20:08 39.61245 -107.02547 11514 ft 210 kts 187°
2026-04-27 20:09 39.59803 -107.02697 11511 ft 210 kts 187°
2026-04-27 20:09 39.58354 -107.02855 11513 ft 209 kts 187°
2026-04-27 20:09 39.56903 -107.03025 11526 ft 209 kts 188°
2026-04-27 20:09 39.55449 -107.03205 11520 ft 210 kts 188°
2026-04-27 20:10 39.53992 -107.03389 11526 ft 211 kts 188°
2026-04-27 20:10 39.52526 -107.03580 11520 ft 211 kts 188°
2026-04-27 20:10 39.51083 -107.03767 11511 ft 211 kts 187°
2026-04-27 20:10 39.49628 -107.03944 11523 ft 210 kts 187°
2026-04-27 20:11 39.48176 -107.04117 11523 ft 209 kts 187°
2026-04-27 20:11 39.46730 -107.04291 11522 ft 206 kts 187°
2026-04-27 20:11 39.45327 -107.04455 11501 ft 199 kts 187°
2026-04-27 20:11 39.43953 -107.04627 11370 ft 199 kts 187°
2026-04-27 20:12 39.42570 -107.04806 11237 ft 200 kts 186°
2026-04-27 20:12 39.41647 -107.04848 11140 ft 201 kts 179°
2026-04-27 20:12 39.39859 -107.04243 10921 ft 202 kts 148°
2026-04-27 20:12 39.38787 -107.03065 10812 ft 203 kts 137°
2026-04-27 20:13 39.37814 -107.01766 10767 ft 197 kts 134°
2026-04-27 20:13 39.36924 -107.00470 10782 ft 190 kts 131°
2026-04-27 20:13 39.36084 -106.99183 10795 ft 185 kts 121°
2026-04-27 20:13 39.35339 -106.97872 10824 ft 179 kts 140°
2026-04-27 20:14 39.34420 -106.96879 10880 ft 168 kts 140°
2026-04-27 20:14 39.33575 -106.95892 10811 ft 163 kts 137°
2026-04-27 20:14 39.32752 -106.94838 10624 ft 168 kts 136°
2026-04-27 20:14 39.31939 -106.93804 10489 ft 165 kts 140°
2026-04-27 20:15 39.31056 -106.92883 10380 ft 162 kts 146°
2026-04-27 20:15 39.30321 -106.91849 10025 ft 152 kts 128°
2026-04-27 20:15 39.29670 -106.90860 9665 ft 143 kts 136°
2026-04-27 20:15 39.28900 -106.90055 9345 ft 141 kts 149°
2026-04-27 20:16 39.28026 -106.89500 9037 ft 138 kts 161°
2026-04-27 20:16 39.27144 -106.89142 8703 ft 126 kts 164°
2026-04-27 20:16 39.26601 -106.88929 8536 ft 123 kts 160°
2026-04-27 20:16 39.25527 -106.88412 8303 ft 123 kts 161°
2026-04-27 20:17 39.24996 -106.88161 8203 ft 122 kts 158°
2026-04-27 20:17 39.24198 -106.87778 8039 ft 122 kts 161°
2026-04-27 20:17 39.23162 -106.87288 7835 ft 119 kts 160°
2026-04-27 20:17 39.22709 -106.87069 7817 ft 85 kts 160°
2026-04-27 20:18 39.22289 -106.86872 7813 ft 40 kts 160°
2026-04-27 20:18 39.22102 -106.86784 7815 ft 22 kts 159°
2026-04-27 20:18 39.22026 -106.86685 7815 ft 10 kts 77°
2026-04-27 20:18 39.22072 -106.86647 7815 ft 12 kts 341°
2026-04-27 20:19 39.22160 -106.86690 7815 ft 15 kts 339°
2026-04-27 20:19 39.22248 -106.86719 7815 ft 10 kts 28°
2026-04-27 20:19 39.22311 -106.86712 7816 ft 6 kts 347°
2026-04-27 20:19 39.22315 -106.86714 7816 ft 0 kts 338°